User: anonymous   Login
Location: Prostejov
(49.4670°N, 17.1170°E)
Time: 02:55:08
(UTC+02:00)
Language:

ISS - Orbit

View from above orbital plane
View from above orbital plane
View from above satellite
View from above satellite

Ground track
Ground track

The orbit data is extracted from the following two-line orbital elements,

1 25544U 98067A   25170.53895367  .00046794  00000-0  81960-3 0  9998
2 25544  51.6363 295.4178 0001843 248.2712 220.6226 15.50118804515525
Epoch (UTC): 19 June 2025 12:56:05
Eccentricity: 0.0001843
inclination: 51.6363°
perigee height: 415 km
apogee height: 417 km
right ascension of ascending node: 295.4178°
argument of perigee: 248.2712°
revolutions per day: 15.50118804
mean anomaly at epoch: 220.6226°
orbit number at epoch: 51552

The dashed part of the orbit path shows where the satellite is in the earth's shadow,  

DLR